PDT,Max TemperatureF,Mean TemperatureF,Min TemperatureF,Max Dew PointF,MeanDew PointF,Min DewpointF,Max Humidity, Mean Humidity, Min Humidity, Max Sea Level PressureIn, Mean Sea Level PressureIn, Min Sea Level PressureIn, Max VisibilityMiles, Mean VisibilityMiles, Min VisibilityMiles, Max Wind SpeedMPH, Mean Wind SpeedMPH, Max Gust SpeedMPH,PrecipitationIn, CloudCover, Events, WindDirDegrees
2014-3-1,34,32,29,31,29,26,100,89,78,29.83,29.70,29.51,10,6,1,10,5,14,0.14,8,Snow,317
2014-3-2,50,39,28,42,31,26,100,79,58,29.88,29.78,29.72,10,4,0,22,6,28,T,6,Fog-Rain,241
2014-3-3,57,45,32,39,35,31,92,67,41,29.98,29.87,29.79,10,10,10,26,12,34,T,3,Rain,202
2014-3-4,58,43,28,36,32,26,100,68,36,30.04,29.99,29.91,10,10,10,18,7,23,T,1,,180
2014-3-5,59,53,47,44,39,33,66,59,51,29.88,29.73,29.57,10,10,10,32,15,43,0.01,6,Rain,187
2014-3-6,53,44,34,34,31,29,82,63,44,30.15,29.87,29.67,10,10,10,35,13,50,T,2,,210
2014-3-7,59,44,28,32,29,26,85,58,30,30.29,30.22,30.16,10,10,10,9,4,12,0.00,0,,134
2014-3-8,61,46,31,41,32,25,72,51,29,30.18,30.06,29.96,10,10,10,25,12,35,0.00,3,,171
2014-3-9,62,52,42,46,43,38,89,71,53,29.98,29.95,29.93,10,9,3,23,11,29,0.27,7,Rain,228
2014-3-10,49,39,29,40,32,25,89,69,49,30.43,30.13,29.94,10,10,8,28,10,32,0.07,5,Rain,282
2014-3-11,54,39,24,30,24,13,88,54,19,30.56,30.48,30.40,10,10,10,12,5,17,0.00,0,,146
2014-3-12,66,43,19,27,22,16,88,52,15,30.45,30.30,30.14,10,10,10,18,6,23,0.00,0,,154
2014-3-13,63,43,24,32,25,20,88,53,20,30.14,30.08,30.01,10,10,10,18,4,,0.00,1,,113
2014-3-14,58,45,32,36,29,23,82,57,32,30.33,30.16,30.04,10,10,10,36,10,42,T,2,Rain,301
2014-3-15,70,49,27,25,20,10,78,45,11,30.39,30.32,30.25,10,10,10,18,7,23,0.00,1,,146
2014-3-16,69,54,38,35,22,5,76,42,8,30.28,30.05,29.84,10,10,10,29,13,37,T,1,,228
2014-3-17,45,36,27,34,24,15,78,55,31,30.30,30.15,29.89,10,9,2,28,16,34,T,4,Rain-Snow,296
2014-3-18,51,35,18,23,20,15,91,60,29,30.33,30.26,30.17,10,10,10,15,6,19,0.00,0,,111
2014-3-19,58,39,19,27,22,17,84,54,23,30.16,30.11,30.04,10,10,10,26,10,32,0.00,0,,256
2014-3-20,47,34,20,27,19,12,81,54,26,30.30,30.23,30.12,10,10,10,16,6,22,0.00,2,,3
2014-3-21,48,30,12,20,17,12,96,62,28,30.28,30.23,30.17,10,10,10,16,4,20,0.00,0,,326
2014-3-22,57,36,15,20,14,9,84,50,15,30.34,30.25,30.17,10,10,10,10,4,14,0.00,0,,145
2014-3-23,62,39,16,21,15,6,74,43,11,30.28,30.23,30.18,10,10,10,13,4,16,0.00,0,,150
2014-3-24,70,45,19,32,20,13,70,41,11,30.22,30.09,29.92,10,10,10,17,6,23,0.00,0,,238
2014-3-25,57,44,31,33,29,23,89,57,25,29.90,29.74,29.64,10,7,2,29,8,35,T,4,Rain,206
2014-3-26,50,40,30,37,32,27,92,71,50,29.66,29.60,29.53,10,9,3,24,7,32,0.04,6,Rain,185
2014-3-27,52,42,31,33,29,22,89,61,32,29.94,29.78,29.63,10,10,10,24,11,30,0.01,5,Rain,216
2014-3-28,57,48,39,40,35,31,83,65,47,29.92,29.84,29.75,10,10,6,26,11,37,0.04,7,Rain,188
2014-3-29,56,43,30,36,30,24,92,62,32,29.90,29.84,29.80,10,10,10,26,9,35,T,3,,226
2014-3-30,47,35,23,33,28,23,92,67,41,29.99,29.95,29.88,10,10,4,18,4,23,0.02,5,Rain,123
2014-3-31,53,37,21,33,26,20,100,64,28,29.96,29.80,29.66,10,10,2,20,6,24,0.00,4,,156